STARLINK-30174 (57609 NORAD) Tracking and Keplerian Element Data

This shows tracking and keplerian element data for the satellite.

Feedback or suggestion? Click here.




ElementValue
Catalog57609
NameSTARLINK-30174
Epoch Orbit376
Epoch Day239.16667824
Epoch Year2023
RAAN77.7327
Inclination43.0007
Eccentricity9.37E-05
Argument of Perigee261.6858
Mean Anonmoly356.1781
Mean Motion15.74518089
Decay Rate-0.00846658
L11 57609U 23119H 23239.16667824 -.00846658 00000+0 -62285-2 0 9995
L22 57609 43.0007 77.7327 0000937 261.6858 356.1781 15.74518089 3766



Live tracking and technical data element details for STARLINK-30174 (NORAD 57609). STARLINK-30174 can be tracked NOW for your location showing map with azimuth and elevation plus other details from your city location.







IsCatalogInMostPopularTable: catalog: 57609, numindb: 5
Update: records affected: 1



GetName: 57609 STARLINK-30174

Hit Count: updated at: Tue, 26 Sep 2023 11:20:05 GMT